Weather History for Ann Arbor, MI

Change the Weather History Date:

Sunday, November 4, 2012

  Actual Average Record
Temperature  
Mean Temperature 31 °F -  
Max Temperature 41 °F 52 °F 73 °F (2003)
Min Temperature 21 °F 32 °F 16 °F (2006)
Degree Days  
Heating Degree Days 34    
Moisture  
Dew Point 24 °F    
Average Humidity 70    
Maximum Humidity 88    
Minimum Humidity 53    
Precipitation  
Precipitation 0.00 in - - ()
Sea Level Pressure  
Sea Level Pressure 30.20 in    
Wind  
Wind Speed 3 mph (North)    
Max Wind Speed 8 mph    
Max Gust Speed -    
Visibility 10 miles    
Events      
Averages and records for this station are not official NWS values.
T = Trace of Precipitation, MM = Missing Value Source: NWS Daily Summary

Daily Weather History Graph

Daily Weather History Graph

Search for Another Location

Airport:

Trip Planner

Search our weather history database for the weather conditions in past years. The results will help you decide how hot, cold, wet, or windy it might be!

Date:

Astronomy

Nov. 04, 2012 Rise Set
Actual Time 7:12 AM EST 5:24 PM EST
Civil Twilight 6:42 AM EST 5:53 PM EST
Nautical Twilight 6:09 AM EST 6:26 PM EST
Astronomical Twilight 5:36 AM EST 6:59 PM EST
Moon 10:00 PM EST (11/4) 11:56 AM EST (11/4)
Length of Visible Light 11h 10m
Length of Day
10h 11m
Waning Gibbous, 72% of the Moon is Illuminated
Nov 4
Waning Gibbous
Nov 6
Last Quarter
Nov 13
New
Nov 20
First Quarter
Nov 28
Full

Hourly Weather History & Observations

Time (EST) Temp. Windchill Dew Point Humidity Pressure Visibility Wind Dir Wind Speed Gust Speed Precip Events Conditions
12:53 AM 32.0 °F - 25.0 °F 75% 30.20 in 10.0 mi Calm Calm - N/A   Mostly Cloudy
1:53 AM 33.1 °F 30.0 °F 26.1 °F 75% 30.20 in 10.0 mi NNE 3.5 mph - N/A   Overcast
1:53 AM 30.0 °F - 24.1 °F 79% 30.19 in 10.0 mi Calm Calm - N/A   Mostly Cloudy
2:53 AM 30.0 °F 26.5 °F 24.1 °F 79% 30.18 in 10.0 mi NNE 3.5 mph - N/A   Clear
3:53 AM 21.9 °F - 17.1 °F 82% 30.19 in 10.0 mi Calm Calm - N/A   Clear
4:53 AM 23.0 °F 18.4 °F 19.9 °F 88% 30.21 in 10.0 mi North 3.5 mph - N/A   Clear
5:53 AM 26.1 °F 21.9 °F 23.0 °F 88% 30.21 in 10.0 mi NW 3.5 mph - N/A   Overcast
6:51 AM 23.0 °F - 19.4 °F 86% 30.18 in 10.0 mi Calm Calm - N/A   Mostly Cloudy
6:53 AM 23.0 °F - 19.9 °F 88% 30.21 in 10.0 mi Calm Calm - N/A   Mostly Cloudy
7:53 AM 30.9 °F 24.3 °F 26.1 °F 82% 30.23 in 10.0 mi NNW 6.9 mph - N/A   Overcast
8:53 AM 33.1 °F 27.7 °F 25.0 °F 72% 30.23 in 10.0 mi North 5.8 mph - N/A   Overcast
9:53 AM 36.0 °F 29.6 °F 26.1 °F 67% 30.22 in 10.0 mi NNW 8.1 mph - N/A   Overcast
10:53 AM 37.0 °F 31.6 °F 25.0 °F 62% 30.21 in 10.0 mi North 6.9 mph - N/A   Overcast
11:29 AM 37.4 °F 33.8 °F 24.8 °F 60% 30.18 in 10.0 mi NNW 4.6 mph - N/A   Overcast
11:53 AM 37.9 °F 33.5 °F 25.0 °F 60% 30.21 in 10.0 mi Variable 5.8 mph - N/A   Overcast
12:53 PM 39.0 °F - 24.1 °F 55% 30.20 in 10.0 mi Calm Calm - N/A   Overcast
1:53 PM 39.9 °F 35.8 °F 26.1 °F 58% 30.19 in 10.0 mi North 5.8 mph - N/A   Overcast
2:53 PM 41.0 °F 38.0 °F 25.0 °F 53% 30.18 in 10.0 mi Variable 4.6 mph - N/A   Mostly Cloudy
3:53 PM 39.9 °F 37.8 °F 25.0 °F 55% 30.18 in 10.0 mi ENE 3.5 mph - N/A   Overcast
4:53 PM 39.0 °F 34.8 °F 25.0 °F 57% 30.18 in 10.0 mi North 5.8 mph - N/A   Mostly Cloudy
5:53 PM 37.0 °F 31.0 °F 24.1 °F 59% 30.19 in 10.0 mi North 8.1 mph - N/A   Overcast
6:53 PM 35.1 °F - 24.1 °F 64% 30.20 in 10.0 mi Calm Calm - N/A   Scattered Clouds
7:53 PM 36.0 °F 31.1 °F 25.0 °F 64% 30.19 in 10.0 mi NW 5.8 mph - N/A   Overcast
8:53 PM 35.1 °F 30.1 °F 25.0 °F 67% 30.20 in 10.0 mi NNW 5.8 mph - N/A   Overcast
9:53 PM 34.0 °F 28.8 °F 24.1 °F 67% 30.20 in 10.0 mi North 5.8 mph - N/A   Overcast
10:53 PM 24.1 °F - 21.0 °F 88% 30.20 in 10.0 mi Calm Calm - N/A   Clear